Weather History for Chandler, OK

Change the Weather History Date:

Monday, February 18, 2013

  Actual Average (KCUH) Record (KCUH)
Temperature  
Mean Temperature 52 °F -  
Max Temperature 62 °F 52 °F 78 °F (1991)
Min Temperature 39 °F 29 °F 3 °F (1978)
Degree Days  
Heating Degree Days 14    
Growing Degree Days 2 (Base 50)    
Moisture  
Dew Point 41 °F    
Average Humidity 60    
Maximum Humidity 82    
Minimum Humidity 39    
Precipitation  
Precipitation 0.00 in - - ()
Sea Level Pressure  
Sea Level Pressure 29.83 in    
Wind  
Wind Speed 16 mph (SW)    
Max Wind Speed 24 mph    
Max Gust Speed 34 mph    
Visibility 10 miles    
Events      
Averages and records for this station are not official NWS values.
T = Trace of Precipitation, MM = Missing Value Source: NWS Daily Summary

Daily Weather History Graph

Daily Weather History Graph

Search for Another Location

Airport:

Trip Planner

Search our weather history database for the weather conditions in past years. The results will help you decide how hot, cold, wet, or windy it might be!

Date:

Astronomy

Feb. 18, 2013 Rise Set
Actual Time 7:10 AM CST 6:12 PM CST
Civil Twilight 6:44 AM CST 6:38 PM CST
Nautical Twilight 6:14 AM CST 7:08 PM CST
Astronomical Twilight 5:45 AM CST 7:37 PM CST
Moon 12:04 PM CST (2/18) 1:45 AM CST (2/18)
Length of Visible Light 11h 53m
Length of Day
11h 01m
First Quarter, 58% of the Moon is Illuminated
Feb 18
First Quarter
Feb 25
Full
Mar 4
Last Quarter
Mar 11
New
Mar 19
First Quarter

Hourly Weather History & Observations

Time (CST) Temp. Windchill Dew Point Humidity Pressure Visibility Wind Dir Wind Speed Gust Speed Precip Events Conditions
12:15 AM 60.8 °F - 41.0 °F 48% 29.75 in 10.0 mi South 19.6 mph 28.8 mph N/A   Clear
12:55 AM 59.0 °F - 42.8 °F 55% 29.75 in 10.0 mi SSW 18.4 mph 29.9 mph N/A   Clear
1:15 AM 59.0 °F - 42.8 °F 55% 29.74 in 10.0 mi South 19.6 mph 28.8 mph N/A   Clear
1:35 AM 59.0 °F - 42.8 °F 55% 29.73 in 10.0 mi South 23.0 mph 29.9 mph N/A   Clear
1:55 AM 59.0 °F - 44.6 °F 59% 29.73 in 10.0 mi South 18.4 mph 27.6 mph N/A   Clear
2:15 AM 57.2 °F - 44.6 °F 63% 29.72 in 10.0 mi South 17.3 mph 28.8 mph N/A   Clear
2:35 AM 57.2 °F - 46.4 °F 67% 29.70 in 10.0 mi South 17.3 mph 28.8 mph N/A   Clear
2:55 AM 57.2 °F - 46.4 °F 67% 29.70 in 10.0 mi South 13.8 mph 28.8 mph N/A   Clear
3:15 AM 55.4 °F - 46.4 °F 72% 29.69 in 10.0 mi South 17.3 mph 21.9 mph N/A   Clear
3:35 AM 55.4 °F - 46.4 °F 72% 29.68 in 10.0 mi South 20.7 mph 28.8 mph N/A   Clear
3:55 AM 55.4 °F - 48.2 °F 77% 29.68 in 10.0 mi South 20.7 mph 29.9 mph N/A   Clear
4:15 AM 55.4 °F - 50.0 °F 82% 29.66 in 10.0 mi South 24.2 mph 29.9 mph N/A   Clear
4:35 AM 55.4 °F - 50.0 °F 82% 29.66 in 10.0 mi South 23.0 mph 32.2 mph N/A   Scattered Clouds
5:15 AM 57.2 °F - 50.0 °F 77% 29.65 in 10.0 mi South 21.9 mph 27.6 mph N/A   Scattered Clouds
5:35 AM 59.0 °F - 51.8 °F 77% 29.65 in 10.0 mi SSW 20.7 mph 34.5 mph N/A   Scattered Clouds
6:15 AM 59.0 °F - 51.8 °F 77% 29.64 in 10.0 mi SSW 19.6 mph 27.6 mph N/A   Scattered Clouds
6:55 AM 59.0 °F - 51.8 °F 77% 29.64 in 10.0 mi South 18.4 mph 32.2 mph N/A   Mostly Cloudy
7:15 AM 59.0 °F - 51.8 °F 77% 29.65 in 10.0 mi SSW 20.7 mph - N/A   Overcast
7:35 AM 59.0 °F - 51.8 °F 77% 29.65 in 10.0 mi SSW 18.4 mph 29.9 mph N/A   Overcast
7:55 AM 59.0 °F - 51.8 °F 77% 29.65 in 10.0 mi SSW 17.3 mph 27.6 mph N/A   Overcast
8:15 AM 59.0 °F - 53.6 °F 82% 29.65 in 10.0 mi SSW 18.4 mph 29.9 mph N/A   Overcast
8:35 AM 60.8 °F - 53.6 °F 77% 29.65 in 10.0 mi SSW 18.4 mph 25.3 mph N/A   Scattered Clouds
8:55 AM 60.8 °F - 53.6 °F 77% 29.66 in 10.0 mi North - - N/A   Scattered Clouds
9:15 AM 60.8 °F - 53.6 °F 77% 29.66 in 10.0 mi North - - N/A   Overcast
9:35 AM 60.8 °F - 53.6 °F 77% 29.66 in 10.0 mi SW 18.4 mph - N/A   Overcast
9:55 AM 60.8 °F - 51.8 °F 72% 29.67 in 10.0 mi North - - N/A   Overcast
10:15 AM 62.6 °F - 51.8 °F 68% 29.68 in 10.0 mi West 19.6 mph - N/A   Overcast
10:35 AM 53.6 °F - 37.4 °F 54% 29.71 in 10.0 mi North - - N/A   Overcast
10:55 AM 55.4 °F - 37.4 °F 51% 29.72 in 10.0 mi North - - N/A   Mostly Cloudy
11:15 AM 57.2 °F - 39.2 °F 51% 29.74 in 10.0 mi North - - N/A   Scattered Clouds
11:35 AM 57.2 °F - 37.4 °F 48% 29.75 in 10.0 mi North - - N/A   Clear
11:55 AM 57.2 °F - 39.2 °F 51% 29.77 in 10.0 mi North - - N/A   Clear
12:15 PM 57.2 °F - 39.2 °F 51% 29.77 in 10.0 mi North - - N/A   Clear
12:35 PM 57.2 °F - 39.2 °F 51% 29.78 in 10.0 mi North - - N/A   Clear
12:55 PM 57.2 °F - 37.4 °F 48% 29.79 in 10.0 mi North - - N/A   Clear
1:15 PM 57.2 °F - 37.4 °F 48% 29.80 in 10.0 mi North - - N/A   Clear
1:35 PM 59.0 °F - 37.4 °F 45% 29.80 in 10.0 mi North - - N/A   Clear
2:15 PM 59.0 °F - 37.4 °F 45% 29.82 in 10.0 mi North - - N/A   Clear
2:35 PM 57.2 °F - 35.6 °F 44% 29.84 in 10.0 mi North - - N/A   Clear
2:55 PM 59.0 °F - 35.6 °F 42% 29.84 in 10.0 mi North - - N/A   Clear
3:15 PM 59.0 °F - 35.6 °F 42% 29.85 in 10.0 mi North - - N/A   Clear
3:35 PM 59.0 °F - 35.6 °F 42% 29.86 in 10.0 mi North - - N/A   Clear
3:55 PM 59.0 °F - 35.6 °F 42% 29.87 in 10.0 mi North - - N/A   Clear
4:15 PM 59.0 °F - 33.8 °F 39% 29.88 in 10.0 mi North - - N/A   Clear
4:35 PM 59.0 °F - 33.8 °F 39% 29.89 in 10.0 mi North - - N/A   Clear
4:55 PM 57.2 °F - 33.8 °F 41% 29.90 in 10.0 mi North - - N/A   Clear
5:15 PM 55.4 °F - 33.8 °F 44% 29.91 in 10.0 mi North - - N/A   Clear
5:35 PM 55.4 °F - 32.0 °F 41% 29.93 in 10.0 mi North - - N/A   Clear
5:55 PM 53.6 °F - 32.0 °F 44% 29.95 in 10.0 mi North - - N/A   Clear
6:15 PM 53.6 °F - 32.0 °F 44% 29.97 in 10.0 mi NW 12.7 mph - N/A   Clear
6:55 PM 50.0 °F - 32.0 °F 50% 30.00 in 10.0 mi NW 9.2 mph - N/A   Clear
7:15 PM 50.0 °F - 32.0 °F 50% 30.01 in 10.0 mi NW 8.1 mph - N/A   Clear
7:35 PM 48.2 °F - 32.0 °F 54% 30.02 in 10.0 mi NW 6.9 mph - N/A   Clear
8:15 PM 46.4 °F 42.4 °F 32.0 °F 57% 30.05 in 10.0 mi NNW 8.1 mph - N/A   Clear
8:35 PM 46.4 °F 42.9 °F 32.0 °F 57% 30.06 in 10.0 mi NNW 6.9 mph - N/A   Clear
8:55 PM 44.6 °F 41.4 °F 32.0 °F 61% 30.07 in 10.0 mi NW 5.8 mph - N/A   Clear
9:15 PM 44.6 °F 40.2 °F 32.0 °F 61% 30.09 in 10.0 mi NNW 8.1 mph - N/A   Clear
9:35 PM 42.8 °F 38.6 °F 32.0 °F 66% 30.11 in 10.0 mi NNW 6.9 mph - N/A   Clear
9:55 PM 42.8 °F 39.3 °F 32.0 °F 66% 30.12 in 10.0 mi NNW 5.8 mph - N/A   Clear
10:15 PM 42.8 °F 40.1 °F 32.0 °F 66% 30.13 in 10.0 mi NNW 4.6 mph - N/A   Clear
10:35 PM 41.0 °F 39.0 °F 32.0 °F 70% 30.14 in 10.0 mi North 3.5 mph - N/A   Clear
10:55 PM 42.8 °F - 32.0 °F 66% 30.15 in 10.0 mi Calm Calm - N/A   Clear
11:15 PM 41.0 °F 37.1 °F 32.0 °F 70% 30.16 in 10.0 mi NNE 5.8 mph - N/A   Clear
11:35 PM 41.0 °F 37.1 °F 32.0 °F 70% 30.16 in 10.0 mi NNE 5.8 mph - N/A   Clear
11:55 PM 39.2 °F 35.9 °F 32.0 °F 75% 30.16 in 10.0 mi ENE 4.6 mph - N/A   Clear